Simultaneous Nadir Overpasses (SNOs) Predictions

Prediction of SNOs between GOES-16 and AQUA Satellite Orbit:

Table of predicted SNOs for the next 14.0 days since TLE Epoch: 1/21/2023
Index Date Time (GOES-16) GOES-16 Lat,Lon AQUA Lat,Lon Distance(km) Time Diff (sec)
1 01/21/2023 06:56:59 -0.04, -75.19 0.51, -77.83 300.28 80
2 01/23/2023 06:41:09 -0.04, -75.19 -0.16, -74.62 65.41 80
3 01/25/2023 06:27:59 -0.04, -75.21 -0.88, -71.42 432.45 80
4 01/25/2023 18:49:07 0.04, -75.22 -0.24, -76.53 148.71 80
5 01/27/2023 18:38:35 0.04, -75.25 0.43, -73.31 220.02 80
6 01/28/2023 06:59:34 -0.04, -75.25 0.66, -78.40 358.36 80
7 01/30/2023 06:43:43 -0.03, -75.29 -0.08, -75.19 11.78 80
8 02/01/2023 06:30:29 -0.02, -75.32 -0.75, -71.96 382.17 80
9 02/01/2023 18:51:35 0.02, -75.34 -0.38, -77.07 198.29 80
10 02/03/2023 18:41:00 -0.02, -75.38 0.30, -73.84 174.20 80
